Terminal Aerodrome Forecast
Issued by NWS Duluth, MN

Home | Current Version | Previous Version | Text Only | Print | Product List | Glossary On
Versions: 1 2 3 4 5 6 7 8 9 10 11 12 13 14 15 16 17 18 19 20 21 22
579
FTUS43 KDLH 240524
TAFINL
TAF
KINL 240524Z 2406/2506 12011KT P6SM VCSH OVC060
      TEMPO 2406/2410 6SM -SHRA BKN023 OVC070
     FM241000 13010KT P6SM OVC011
     FM241600 13011KT P6SM SCT025 BKN150
     FM242200 17012KT P6SM VCTS BKN035CB
     FM250200 28012G19KT P6SM VCSH BKN025=

USA.gov is the U.S. government's official web portal to all federal, state and local government web resources and services.